This is the latest recevied weather packets stored in our database for station/object K8JCL-13. If no packets are shown the sender has not sent any weather packets the latest 10 day(s).
| Time | Temp. | Humidity | Pressure | Rain* | Wind** | Luminosity | Snow |
|---|---|---|---|---|---|---|---|
| 1778005869 | 19.44° C | 76% | 1008.6 hPa | 0 mm | - | 46 W/m² | - |
| 1778005565 | 19.44° C | 75% | 1008.9 hPa | 0 mm | - | 107 W/m² | - |
| 1778005262 | 20° C | 76% | 1008.9 hPa | 0 mm | - | 139 W/m² | - |
| 1778004959 | 19.44° C | 75% | 1009 hPa | 0 mm | - | 173 W/m² | - |
| 1778004656 | 19.44° C | 76% | 1009 hPa | 0 mm | - | 184 W/m² | - |
| 1778004351 | 19.44° C | 76% | 1009.2 hPa | 0 mm | - | 163 W/m² | - |
| 1778004049 | 19.44° C | 76% | 1009.1 hPa | 0 mm | - | 176 W/m² | - |
| 1778003744 | 19.44° C | 76% | 1009.1 hPa | 0 mm | - | 177 W/m² | - |
| 1778003441 | 18.89° C | 78% | 1009.2 hPa | 0 mm | - | 220 W/m² | - |
| 1778003138 | 18.33° C | 79% | 1009.2 hPa | 0 mm | - | 84 W/m² | - |
| 1778002834 | 18.33° C | 78% | 1009 hPa | 0 mm | - | 82 W/m² | - |
| 1778002531 | 18.33° C | 78% | 1009.1 hPa | 0 mm | - | 62 W/m² | - |
| 1778002228 | 18.89° C | 77% | 1009.6 hPa | 0 mm | - | 52 W/m² | - |
| 1778001926 | 18.33° C | 78% | 1009.5 hPa | 0 mm | - | 86 W/m² | - |
| 1778001622 | 18.33° C | 79% | 1009.4 hPa | 0 mm | - | 84 W/m² | - |
| 1778001316 | 18.33° C | 78% | 1009.4 hPa | 0 mm | - | 75 W/m² | - |
| 1778001014 | 18.33° C | 77% | 1009.6 hPa | 0 mm | - | 63 W/m² | - |
| 1778000705 | 18.33° C | 76% | 1009.5 hPa | 0 mm | - | 61 W/m² | - |
| 1778000401 | 18.89° C | 79% | 1009.5 hPa | 0 mm | - | 51 W/m² | - |
| 1778000096 | 18.89° C | 79% | 1009.2 hPa | 0 mm | - | 56 W/m² | - |
| 1777999792 | 19.44° C | 81% | 1009.4 hPa | 0 mm | - | 81 W/m² | - |
| 1777999489 | 19.44° C | 80% | 1009.5 hPa | 0 mm | - | 113 W/m² | - |
| 1777999187 | 19.44° C | 77% | 1009.3 hPa | 0 mm | - | 127 W/m² | - |
| 1777998885 | 19.44° C | 78% | 1009.4 hPa | 0 mm | - | 113 W/m² | - |
| 1777998584 | 19.44° C | 78% | 1009.6 hPa | 0 mm | - | 140 W/m² | - |
* Rain latest hour (hover to see other rain measurements)
** Current wind speed in m/s (hover to see current wind gust speed)